Location: Splawn
(30.9202°N, 96.9858°W)
Time: 21:09:32
(UTC+00:00)

Transit 2A Rocket - All Passes

Search period start: 28 February 2020 00:00
Search period end: 09 March 2020 00:00
Orbit: 591 x 912 km, 66.7° (Epoch: 27 February)

Date Brightness Start Highest point End Pass type
(mag) Time Alt. Az. Time Alt. Az. Time Alt. Az.
28 Feb - 02:02:05 10° SSE 02:05:18 21° ESE 02:08:32 10° ENE visible
28 Feb - 03:44:05 10° WSW 03:47:37 25° WNW 03:51:14 10° N night (unlit)
28 Feb - 12:30:24 10° NNW 12:35:48 64° ENE 12:41:37 10° SE visible
28 Feb - 14:15:05 10° WNW 14:17:58 14° WSW 14:20:55 10° SW daylight
29 Feb - 03:00:50 10° SW 03:04:58 50° WNW 03:09:14 10° NNE visible
29 Feb - 11:48:13 10° N 11:53:11 36° ENE 11:58:29 10° SE visible
29 Feb - 13:31:02 10° NW 13:35:37 27° WSW 13:40:26 10° SSW daylight
01 Mar - 02:18:11 10° SSW 02:22:26 75° ESE 02:26:49 10° NNE visible
01 Mar - 11:06:27 10° N 11:10:29 21° ENE 11:14:42 10° ESE visible
01 Mar - 12:47:54 10° NW 12:53:12 48° WSW 12:58:51 10° S daylight
02 Mar - 01:36:11 10° S 01:40:02 34° ESE 01:43:58 10° NE visible
02 Mar - 03:19:55 10° W 03:22:38 16° NW 03:25:26 10° NNW visible
02 Mar - 10:25:42 10° NNE 10:27:37 12° NE 10:29:35 10° ENE visible
02 Mar - 12:05:12 10° NNW 12:10:42 88° WSW 12:16:38 10° SSE visible
03 Mar - 00:55:04 10° SE 00:57:42 16° ESE 01:00:24 10° ENE visible
03 Mar - 02:36:05 10° WSW 02:39:53 31° WNW 02:43:50 10° N visible
03 Mar - 11:22:49 10° NNW 11:28:10 52° ENE 11:33:52 10° SE visible
03 Mar - 13:06:43 10° WNW 13:10:25 18° WSW 13:14:14 10° SSW daylight
04 Mar - 01:53:03 10° SSW 01:57:17 65° WNW 02:01:40 10° NNE visible
04 Mar - 10:40:45 10° N 10:45:31 30° ENE 10:50:33 10° ESE visible
04 Mar - 12:23:06 10° NW 12:28:03 33° WSW 12:33:16 10° S visible
05 Mar - 01:10:37 10° S 01:14:48 57° ESE 01:19:06 10° NE visible
05 Mar - 02:56:44 10° WNW 02:57:44 11° NW 02:58:44 10° NW visible
05 Mar - 09:59:11 10° NNE 10:02:45 17° NE 10:06:28 10° E visible
05 Mar - 11:40:09 10° NNW 11:45:36 60° WSW 11:51:26 10° S visible
06 Mar - 00:28:51 10° SSE 00:32:25 26° ESE 00:36:04 10° NE daylight
06 Mar - 02:11:39 10° WSW 02:14:53 20° NW 02:18:12 10° N visible
06 Mar - 10:57:33 10° NNW 11:03:06 77° ENE 11:09:01 10° SSE visible
06 Mar - 12:43:18 10° W 12:45:10 12° WSW 12:47:03 10° WSW daylight
06 Mar - 23:48:21 10° SE 23:50:09 12° ESE 23:51:56 10° E daylight
07 Mar - 01:28:09 10° SW 01:32:11 40° WNW 01:36:21 10° N visible
07 Mar - 10:15:16 10° N 10:20:30 43° ENE 10:26:05 10° SE visible
07 Mar - 11:58:34 10° WNW 12:02:51 22° WSW 12:07:19 10° SSW visible
08 Mar - 00:45:20 10° SSW 00:49:36 86° WNW 00:54:03 10° NNE visible
08 Mar - 09:33:20 10° N 09:37:49 25° ENE 09:42:32 10° ESE visible
08 Mar - 11:15:15 10° NW 11:20:27 40° WSW 11:25:59 10° S visible
